[[{"header":{"parameterUnit":"m.s-1","parameterCategory":1,"la1":30.2991,"la2":30.254,"lo1":-89.0895,"lo2":-89.0444,"dy":0.0017,"dx":0.0017,"nx":28,"ny":28,"refTime":"2025-04-18T03:00:00:Z","depth":0,"parameterNumber":2,"parameterNumberName":"U-component_of_WINDS"},"data":[0,0,0,0,0,0,0,0,0,0,0,0,0,0,0,0,0,0,0,0,0,0,0,0,0,0,0,0,0,0,0,0,0,0,0,0,0,0,0,0,0,0,0,0,0,0,0,0,0,0,0,0,0,0,0,0,0,0,-5.3137,-5.3138,0,-5.3238,-5.3239,-5.324,-5.3171,-5.3168,-5.3165,-5.3162,-5.3265,-5.327,-5.3276,0,0,0,0,0,0,0,0,0,0,0,0,0,-5.2886,-5.2891,-5.3137,-5.3138,-5.314,-5.3238,-5.3239,-5.324,-5.3171,-5.3168,-5.3164,-5.316,-5.3263,-5.327,-5.3276,0,0,0,0,0,0,0,0,0,0,0,0,0,-5.2992,-5.2893,-5.3137,-5.3117,-5.3116,-5.3237,-5.3239,-5.3241,-5.3172,-5.3168,-5.3163,-5.3158,-5.3261,-5.3269,-5.3277,-5.3423,0,0,-5.3303,-5.3307,0,0,0,0,0,0,0,0,-5.2986,-5.3001,-5.3119,-5.3119,-5.3118,-5.3187,-5.3188,-5.3302,-5.3173,-5.3151,-5.3162,-5.3156,-5.3243,-5.3252,-5.3281,-5.3428,-5.3433,-5.3304,-5.3309,-5.3313,-5.3315,0,0,0,0,0,0,0,-5.2979,-5.2996,-5.3177,-5.3121,-5.312,-5.3103,-5.3113,-5.3209,-5.3222,-5.3153,-5.3148,-5.3161,-5.3242,-5.3273,-5.3283,-5.3434,-5.3304,-5.3311,-5.3316,-5.332,-5.3706,-5.371,0,0,0,0,0,0,-5.2973,-5.2991,-5.3174,-5.318,-5.3039,-5.3112,-5.3123,-5.317,-5.3221,-5.3224,-5.3165,-5.3157,-5.3261,-5.3274,-5.3287,-5.346,-5.3313,-5.3321,-5.3325,-5.37,-5.3707,-5.3712,0,0,0,0,0,0,-5.2968,-5.299,-5.317,-5.3084,-5.3106,-5.3121,-5.3174,-5.3174,-5.3206,-5.323,-5.3232,-5.3195,-5.3258,-5.3275,-5.339,-5.3463,-5.3324,-5.3332,-5.3694,-5.3702,-5.3709,-5.3809,0,0,0,0,0,0,-5.2961,-5.2989,-5.3044,-5.3086,-5.3111,-5.3271,-5.3179,-5.3179,-5.3221,-5.3212,-5.3259,-5.3262,-5.3256,-5.3378,-5.3398,-5.3472,-5.3339,-5.3688,-5.3698,-5.3707,-5.3799,-5.3819,-5.3837,0,0,0,0,0,-5.2952,-5.3068,-5.3047,-5.307,-5.318,-5.3276,-5.329,-5.328,-5.3227,-5.3283,-5.3298,-5.326,-5.3452,-5.339,-5.3413,-5.349,-5.3683,-5.3695,-5.3706,-5.3791,-5.3816,-5.3836,0,0,0,0,0,0,-5.3034,-5.3073,-5.305,-5.3183,-5.3227,-5.3264,-5.3333,-5.3306,-5.3366,-5.3355,-5.3341,-5.3352,-5.3472,-5.3493,-5.3423,-5.3634,-5.3559,-5.3576,-5.3616,-5.3639,-5.3657,-5.3649,-5.3346,0,0,0,0,0,-5.3068,-5.3142,-5.3172,-5.3286,-5.3309,-5.3318,-5.3359,-5.3349,-5.3393,-5.3411,-5.3434,-5.3479,-5.3549,-5.3596,-5.3662,-5.3803,-5.3812,-5.3868,-5.3886,-5.3901,-5.3915,-5.3991,-5.4016,-5.375,-5.375,-5.375,0,0,-5.3138,-5.3168,-5.3216,-5.3304,-5.3336,-5.3413,-5.3334,-5.3419,-5.3476,-5.3424,-5.3533,-5.3553,-5.3602,-5.373,-5.3788,-5.3751,-5.3991,-5.3916,-5.3928,-5.3934,-5.4006,-5.4031,-5.4053,-5.3758,-5.3757,-5.3756,0,0,-5.3304,-5.3335,-5.3433,-5.3468,-5.3518,-5.3523,-5.3547,-5.3589,-5.3599,-5.3709,-5.3672,-5.374,-5.3861,-5.3897,-5.3932,-5.4114,-5.4081,-5.4136,-5.4232,-5.4306,-5.4327,-5.4345,-5.4409,-5.4432,-5.415,-5.415,-5.4151,0,-5.3384,-5.3499,-5.3487,-5.3575,-5.3615,-5.3572,-5.3671,-5.3705,-5.3775,-5.3803,-5.3761,-5.3913,-5.3943,-5.4079,-5.4123,-5.4153,-5.4179,-5.4129,-5.4325,-5.4343,-5.436,-5.4421,-5.4445,-5.4157,-5.4156,-5.4155,-5.4155,0,-5.3595,-5.3675,-5.3748,-5.3816,-5.3864,-5.3958,-5.3961,-5.4011,-5.3997,-5.4007,-5.4119,-5.4154,-5.4226,-5.4258,-5.4245,-5.4393,-5.4369,-5.4327,-5.425,-5.4392,-5.4449,-5.4472,-5.4166,-5.4163,-5.4161,-5.416,0,0,-5.3813,-5.3875,-5.3902,-5.3932,-5.3985,-5.4046,-5.4138,-5.4209,-5.4252,-5.4302,-5.4378,-5.4483,-5.4444,-5.4483,-5.4474,-5.4539,-5.468,-5.4489,-5.4489,-5.4522,-5.4844,-5.4874,-5.4902,-5.4659,-5.4664,-5.4667,-5.484,0,-5.3981,-5.414,-5.4134,-5.4283,-5.4356,-5.4318,-5.4397,-5.4439,-5.4451,-5.4515,-5.4529,-5.4603,-5.4547,-5.457,-5.4633,-5.4649,-5.4744,-5.4637,-5.4729,-5.4733,-5.4716,-5.4931,-5.4963,-5.5124,-5.4862,-5.4866,-5.4868,0,-5.4198,-5.4255,-5.4411,-5.4453,-5.4484,-5.4556,-5.462,-5.4683,-5.4729,-5.4733,-5.4778,-5.4758,-5.4851,-5.4775,-5.4902,-5.483,-5.4868,-5.4882,-5.4888,-5.4894,-5.4808,-5.4942,-5.5175,-5.5199,-5.4903,-5.4901,-5.4898,0,-5.434,-5.4457,-5.4565,-5.4592,-5.4644,-5.4696,-5.472,-5.4762,-5.4805,-5.4861,-5.4889,-5.4956,-5.4993,-5.5045,-5.5044,-5.4989,-5.5174,-5.5097,-5.5179,-5.5179,-5.5218,-5.5215,-5.5459,-5.5246,-5.5245,-5.5245,-5.5245,0,-5.4527,-5.4624,-5.4629,-5.4696,-5.4803,-5.4795,-5.4902,-5.4921,-5.4959,-5.5028,-5.5,-5.5066,-5.5061,-5.5129,-5.5129,-5.5234,-5.5251,-5.5257,-5.5256,-5.5259,-5.5258,-5.5282,-5.527,-5.5251,-5.525,-5.5249,-5.5248,0,-5.4703,-5.4711,-5.4826,-5.4867,-5.4879,-5.4956,-5.4991,-5.5054,-5.5064,-5.5153,-5.5173,-5.519,-5.5267,-5.5272,-5.5362,-5.5362,-5.5489,-5.5477,-5.5474,-5.5471,-5.5552,-5.5544,-5.5818,-5.5853,-5.5619,-5.5621,-5.5623,0,-5.4821,-5.4895,-5.4943,-5.4988,-5.5015,-5.5087,-5.5131,-5.5127,-5.5174,-5.5233,-5.5289,-5.5364,-5.5423,-5.5549,-5.5568,-5.5637,-5.5625,-5.5716,-5.5634,-5.5635,-5.5624,-5.5619,-5.5626,-5.5731,-5.5734,-5.5736,-5.5738,0,-5.503,-5.503,-5.5094,-5.5161,-5.5214,-5.5266,-5.5314,-5.5352,-5.5353,-5.5408,-5.5486,-5.5533,-5.5624,-5.5699,-5.5766,-5.5791,-5.5765,-5.5764,-5.5786,-5.5789,-5.5783,-5.5786,-5.5515,-5.5757,-5.5755,-5.5753,-5.5752,-5.5752,-5.518,-5.5243,-5.5287,-5.536,-5.5396,-5.5442,-5.5503,-5.5521,-5.5587,-5.5661,-5.5655,-5.5742,-5.5787,-5.5874,-5.5905,-5.5973,-5.5942,-5.5975,-5.5983,-5.599,-5.5998,-5.5774,-5.5986,-5.5985,-5.5984,-5.5984,-5.5984,0,-5.5385,-5.5412,-5.5479,-5.5547,-5.5605,-5.5576,-5.5628,-5.5678,-5.5755,-5.5799,-5.5858,-5.5949,-5.6021,-5.6048,-5.6118,-5.6168,-5.6158,-5.6186,-5.6182,-5.6188,-5.6023,-5.5996,-5.6193,-5.6193,-5.6193,-5.6193,-5.6193,-5.6193,-5.5499,-5.5604,-5.561,-5.5733,-5.5759,-5.5844,-5.5877,-5.5919,-5.5954,-5.6057,-5.6117,-5.6133,-5.6171,-5.6244,-5.6309,-5.6315,-5.6341,-5.6375,-5.6376,-5.6221,-5.6199,-5.6179,-5.6154,-5.6381,-5.6382,-5.6535,-5.6536,-5.6538]},{"header":{"parameterUnit":"m.s-1","parameterCategory":1,"la1":30.2991,"la2":30.254,"lo1":-89.0895,"lo2":-89.0444,"dy":0.0017,"dx":0.0017,"nx":28,"ny":28,"refTime":"2025-04-18T03:00:00:Z","depth":0,"parameterNumber":3,"parameterNumberName":"V-component_of_WINDS"},"data":[0,0,0,0,0,0,0,0,0,0,0,0,0,0,0,0,0,0,0,0,0,0,0,0,0,0,0,0,0,0,0,0,0,0,0,0,0,0,0,0,0,0,0,0,0,0,0,0,0,0,0,0,0,0,0,0,0,0,2.3447,2.3447,0,2.3454,2.3454,2.3454,2.3435,2.3434,2.3433,2.3433,2.3438,2.3439,2.344,0,0,0,0,0,0,0,0,0,0,0,0,0,2.3419,2.342,2.3447,2.3447,2.3448,2.3454,2.3454,2.3454,2.3435,2.3434,2.3433,2.3433,2.3438,2.3439,2.344,0,0,0,0,0,0,0,0,0,0,0,0,0,2.3429,2.342,2.3447,2.3439,2.3438,2.3454,2.3454,2.3454,2.3435,2.3434,2.3433,2.3432,2.3438,2.3439,2.344,2.3464,0,0,2.3443,2.3443,0,0,0,0,0,0,0,0,2.3429,2.343,2.344,2.3439,2.3439,2.3442,2.3446,2.3457,2.3435,2.3436,2.3433,2.3432,2.344,2.3441,2.3444,2.3464,2.3464,2.3443,2.3444,2.3444,2.3444,0,0,0,0,0,0,0,2.3428,2.343,2.345,2.344,2.3439,2.3435,2.3435,2.3448,2.3443,2.3436,2.3435,2.3436,2.344,2.3443,2.3444,2.3464,2.3443,2.3444,2.3445,2.3445,2.3505,2.3506,0,0,0,0,0,0,2.3428,2.3429,2.345,2.345,2.3431,2.3436,2.3436,2.3442,2.3443,2.3442,2.3436,2.3435,2.3442,2.3443,2.3444,2.3473,2.3444,2.3445,2.3446,2.3504,2.3506,2.3507,0,0,0,0,0,0,2.3428,2.343,2.3449,2.3439,2.3441,2.3437,2.3444,2.3443,2.3446,2.3443,2.3442,2.3441,2.3441,2.3443,2.3459,2.3473,2.3446,2.3446,2.3503,2.3505,2.3506,2.353,0,0,0,0,0,0,2.3427,2.343,2.3439,2.344,2.3442,2.3464,2.3445,2.3443,2.3448,2.3446,2.3447,2.3446,2.3441,2.3458,2.346,2.3474,2.3447,2.3502,2.3504,2.3506,2.3528,2.3532,2.3536,0,0,0,0,0,2.3426,2.3445,2.344,2.3442,2.3453,2.3465,2.3466,2.346,2.3449,2.3458,2.3457,2.3446,2.3471,2.346,2.3462,2.3476,2.3501,2.3503,2.3506,2.3526,2.3532,2.3536,0,0,0,0,0,0,2.3445,2.3445,2.3439,2.3458,2.3462,2.3462,2.3473,2.3465,2.3472,2.3469,2.3461,2.3461,2.348,2.348,2.3467,2.35,2.3484,2.3487,2.3499,2.3504,2.3508,2.3507,2.3448,0,0,0,0,0,2.3452,2.3462,2.3461,2.3478,2.3481,2.3477,2.3482,2.3477,2.348,2.3481,2.348,2.3484,2.3493,2.3498,2.3506,2.3528,2.3529,2.354,2.3543,2.3547,2.3549,2.3562,2.3567,2.3514,2.3514,2.3514,0,0,2.3465,2.3466,2.3473,2.3482,2.3484,2.3495,2.3478,2.349,2.3498,2.3483,2.3498,2.3499,2.3502,2.3522,2.353,2.3522,2.3564,2.3549,2.3552,2.3553,2.3565,2.357,2.3574,2.3516,2.3515,2.3515,0,0,2.3495,2.3497,2.3512,2.3515,2.3519,2.3517,2.3521,2.3522,2.3522,2.3538,2.3527,2.3537,2.3552,2.3555,2.3558,2.3592,2.3583,2.3595,2.3615,2.3628,2.3632,2.3636,2.3648,2.3653,2.3598,2.3598,2.3598,0,2.3511,2.3527,2.3521,2.3534,2.3539,2.3527,2.3543,2.3546,2.3552,2.3556,2.3547,2.3566,2.3568,2.3589,2.3597,2.36,2.3605,2.3594,2.3632,2.3636,2.3639,2.3651,2.3656,2.3599,2.3599,2.3599,2.3599,0,2.3547,2.3559,2.3571,2.3578,2.3584,2.3598,2.3595,2.3602,2.3597,2.3595,2.3613,2.3614,2.3623,2.3627,2.3622,2.3648,2.3643,2.3633,2.3617,2.3645,2.3657,2.3661,2.3601,2.3601,2.36,2.36,0,0,2.3588,2.3593,2.3598,2.3602,2.3606,2.3615,2.3629,2.3638,2.3645,2.365,2.3662,2.3676,2.3668,2.3672,2.3667,2.3678,2.3706,2.3667,2.3667,2.3674,2.3736,2.3743,2.3749,2.37,2.3701,2.3702,2.3736,0,2.3618,2.3643,2.3639,2.3663,2.3674,2.3664,2.3677,2.3681,2.368,2.369,2.3689,2.37,2.3687,2.369,2.3701,2.37,2.3718,2.3698,2.3712,2.3712,2.3711,2.3754,2.3762,2.3794,2.374,2.3741,2.3741,0,2.3656,2.3664,2.369,2.3694,2.3699,2.371,2.3719,2.3728,2.3733,2.3732,2.3738,2.3731,2.3746,2.3731,2.3751,2.3738,2.3743,2.3744,2.3745,2.3746,2.3728,2.3757,2.3804,2.3809,2.3748,2.3747,2.3747,0,2.3684,2.3701,2.3719,2.3723,2.3728,2.3736,2.3739,2.3743,2.3749,2.3757,2.3761,2.3771,2.3776,2.3783,2.378,2.3768,2.3802,2.3785,2.3801,2.3802,2.3808,2.3808,2.3857,2.3812,2.3812,2.3812,2.3812,0,2.3719,2.3735,2.3732,2.3743,2.3761,2.3757,2.3775,2.3776,2.378,2.3792,2.3783,2.3794,2.3789,2.38,2.3797,2.3815,2.3817,2.3817,2.3816,2.3818,2.3818,2.3821,2.3819,2.3813,2.3813,2.3813,2.3812,0,2.3753,2.3751,2.377,2.3774,2.3776,2.3789,2.3793,2.3803,2.3803,2.3817,2.3821,2.382,2.3832,2.383,2.3843,2.3841,2.3864,2.3861,2.3863,2.3862,2.3878,2.3877,2.3932,2.3939,2.3889,2.3889,2.389,0,2.3774,2.3787,2.3793,2.38,2.3804,2.3815,2.3822,2.3818,2.3826,2.3834,2.3844,2.3855,2.3864,2.3885,2.3885,2.3896,2.3892,2.3911,2.3894,2.3896,2.3893,2.3893,2.3894,2.3914,2.3915,2.3915,2.3916,0,2.3814,2.3813,2.3823,2.3834,2.3842,2.385,2.3857,2.3864,2.3861,2.387,2.3883,2.389,2.3904,2.3916,2.3926,2.3929,2.3922,2.3921,2.3925,2.3927,2.3928,2.3928,2.3872,2.392,2.3919,2.3919,2.3919,2.3919,2.3843,2.3854,2.386,2.3872,2.3877,2.3885,2.3895,2.3897,2.3908,2.3919,2.3917,2.3932,2.3938,2.3951,2.3955,2.3967,2.396,2.3966,2.3967,2.3969,2.3971,2.3927,2.3968,2.3968,2.3968,2.3968,2.3968,0,2.3882,2.3886,2.3897,2.3908,2.3918,2.3911,2.3919,2.3928,2.3941,2.3948,2.3957,2.3973,2.3985,2.3987,2.3999,2.4008,2.4005,2.4011,2.401,2.4011,2.3977,2.3972,2.4013,2.4013,2.4013,2.4013,2.4013,2.4013,2.3903,2.3922,2.3923,2.3944,2.3948,2.3963,2.3968,2.3975,2.3981,2.3999,2.4009,2.4011,2.4016,2.4028,2.4039,2.4039,2.4044,2.4052,2.4051,2.4018,2.4014,2.4009,2.4005,2.4053,2.4053,2.4085,2.4085,2.4085]}]]